Location: Bruch
(44.2051°N, 0.4120°E)
Time: 13:08:24
(UTC+00:00)

Atlas Centaur 2 - Pass Details

Date: 29 November 2020
Orbit: 459 x 1309 km, 30.4° (Epoch: 25 January)

Event Time Altitude Azimuth Distance (km) Brightness Sun altitude
Exits shadow 06:09:42 - 246° (WSW) 3,407 4.9 -10.9°
Reaches altitude 10° 06:12:29 10° 233° (SW) 2,574 4.4 -10.5°
Maximum altitude 06:16:32 19° 191° (S) 1,839 4.1 -9.8°
Drops below altitude 10° 06:20:02 10° 148° (SSE) 2,173 5.2 -9.2°
Sets 06:22:50 0° 129° (SE) 2,938 6.7 -8.7°
